Location: Tucson
(32.2217°N, 110.9265°W)
Time: 07:24:20
(UTC-07:00)

Tiros 1 - Pass Details

Date: 01 November 2021
Orbit: 629 x 664 km, 48.4° (Epoch: 26 November)

Event Time Altitude Azimuth Distance (km) Brightness Sun altitude
Rises 13:37:53 0° 310° (NW) 2,969 10.5 38.3°
Reaches altitude 10° 13:40:15 10° 312° (NW) 2,050 9.7 38.1°
Maximum altitude 13:44:59 79° 39° (NE) 657 7.7 37.6°
Drops below altitude 10° 13:49:38 10° 127° (SE) 2,019 9.9 37.1°
Sets 13:51:57 0° 128° (SE) 2,920 10.6 36.8°
